When you browse on this site, cookies collect data to enhance your experience and personalize the content and advertising you see.
Visit our Privacy Policy to learn more. By continuing to use the site, you agree to this use of cookies and data.
  • In Lithuania
  • List of Countries
  • For 7 days
  • Water Temperature
  • Weather Map
  • Weather Widgets
  • user-avatar
    Login

    Hourly Weather Kalat

    Today, 11 December, Wednesday

    Time Temperature Precipitation Wind Pressure Humidity
    00:00 -10°C° 0.2 mm 0 mps 467 mmHg 89%
    01:00 -10°C° 0.2 mm 0 mps 467 mmHg 91%
    02:00 -11°C° 0.2 mm 0 mps 467 mmHg 94%
    03:00 -11°C° 0.1 mm 0 mps 467 mmHg 93%
    04:00 -12°C° 0.1 mm 1 mps 466 mmHg 93%
    05:00 -12°C° 0 mm 1 mps 465 mmHg 94%
    06:00 -12°C° 0.1 mm 1 mps 465 mmHg 93%
    07:00 -13°C° 0.1 mm 1 mps 465 mmHg 93%
    08:00 -13°C° 0.1 mm 1 mps 466 mmHg 92%
    09:00 -12°C° 0 mm 1 mps 466 mmHg 87%
    10:00 -11°C° 0 mm 1 mps 467 mmHg 81%
    11:00 -10°C° 0 mm 0 mps 467 mmHg 75%
    12:00 -9°C° 0 mm 1 mps 467 mmHg 72%
    13:00 -8°C° 0 mm 1 mps 467 mmHg 70%
    14:00 -8°C° 0 mm 1 mps 468 mmHg 68%
    15:00 -9°C° 0 mm 1 mps 467 mmHg 73%
    16:00 -11°C° 0 mm 1 mps 465 mmHg 78%
    17:00 -12°C° 0 mm 1 mps 464 mmHg 83%
    18:00 -12°C° 0 mm 1 mps 465 mmHg 81%
    19:00 -15°C° 0 mm 2 mps 465 mmHg 79%
    20:00 -15°C° 0 mm 2 mps 465 mmHg 77%
    21:00 -15°C° 0 mm 2 mps 465 mmHg 77%
    22:00 -15°C° 0 mm 2 mps 465 mmHg 77%
    23:00 -16°C° 0 mm 3 mps 465 mmHg 77%

    Tomorrow, 12 December, Thursday

    Time Temperature Precipitation Wind Pressure Humidity
    00:00 -16°C° 0 mm 3 mps 465 mmHg 77%
    01:00 -15°C° 0 mm 2 mps 465 mmHg 78%
    02:00 -15°C° 0 mm 2 mps 464 mmHg 78%
    03:00 -16°C° 0 mm 2 mps 464 mmHg 78%
    04:00 -16°C° 0 mm 2 mps 464 mmHg 78%
    05:00 -16°C° 0 mm 2 mps 464 mmHg 78%
    06:00 -16°C° 0 mm 2 mps 464 mmHg 76%
    07:00 -15°C° 0 mm 2 mps 464 mmHg 74%
    08:00 -15°C° 0 mm 2 mps 465 mmHg 72%
    09:00 -14°C° 0 mm 2 mps 465 mmHg 69%
    10:00 -13°C° 0 mm 2 mps 466 mmHg 66%
    11:00 -10°C° 0 mm 2 mps 467 mmHg 63%
    12:00 -10°C° 0 mm 2 mps 467 mmHg 62%
    13:00 -10°C° 0 mm 2 mps 467 mmHg 62%
    14:00 -9°C° 0 mm 2 mps 467 mmHg 61%
    15:00 -9°C° 0 mm 1 mps 466 mmHg 66%
    16:00 -11°C° 0 mm 1 mps 465 mmHg 71%
    17:00 -12°C° 0 mm 1 mps 464 mmHg 76%
    18:00 -13°C° 0 mm 1 mps 464 mmHg 78%
    19:00 -14°C° 0 mm 1 mps 463 mmHg 79%
    20:00 -15°C° 0 mm 1 mps 462 mmHg 81%
    21:00 -15°C° 0 mm 1 mps 463 mmHg 80%
    22:00 -15°C° 0 mm 1 mps 463 mmHg 80%
    23:00 -15°C° 0 mm 0 mps 463 mmHg 79%

    Day after tomorrow, 13 December, Friday

    Time Temperature Precipitation Wind Pressure Humidity
    00:00 -15°C° 0 mm 0 mps 462 mmHg 79%
    01:00 -15°C° 0 mm 0 mps 462 mmHg 80%
    02:00 -15°C° 0 mm 1 mps 462 mmHg 80%
    03:00 -15°C° 0 mm 1 mps 462 mmHg 81%
    04:00 -16°C° 0 mm 1 mps 462 mmHg 81%
    05:00 -16°C° 0 mm 1 mps 461 mmHg 82%
    06:00 -16°C° 0 mm 1 mps 462 mmHg 81%
    07:00 -16°C° 0 mm 1 mps 462 mmHg 81%
    08:00 -16°C° 0 mm 1 mps 462 mmHg 80%
    09:00 -15°C° 0 mm 0 mps 463 mmHg 75%
    10:00 -13°C° 0 mm 0 mps 464 mmHg 69%
    11:00 -11°C° 0 mm 0 mps 465 mmHg 64%
    12:00 -11°C° 0 mm 0 mps 466 mmHg 64%
    13:00 -10°C° 0 mm 0 mps 466 mmHg 63%
    14:00 -9°C° 0 mm 1 mps 466 mmHg 63%
    15:00 -11°C° 0 mm 1 mps 465 mmHg 70%
    16:00 -13°C° 0 mm 1 mps 464 mmHg 76%
    17:00 -14°C° 0 mm 1 mps 462 mmHg 82%
    18:00 -15°C° 0 mm 1 mps 462 mmHg 82%
    19:00 -15°C° 0 mm 1 mps 462 mmHg 83%
    20:00 -16°C° 0 mm 1 mps 463 mmHg 83%
    21:00 -16°C° 0 mm 1 mps 462 mmHg 81%
    22:00 -16°C° 0 mm 1 mps 462 mmHg 79%
    23:00 -17°C° 0 mm 1 mps 462 mmHg 77%

    14 December, Saturday

    Time Temperature Precipitation Wind Pressure Humidity
    00:00 -17°C° 0 mm 1 mps 462 mmHg 73%
    01:00 -17°C° 0 mm 1 mps 462 mmHg 70%
    02:00 -17°C° 0 mm 1 mps 462 mmHg 67%
    03:00 -18°C° 0 mm 1 mps 462 mmHg 64%
    04:00 -18°C° 0 mm 1 mps 462 mmHg 61%
    05:00 -18°C° 0 mm 1 mps 462 mmHg 59%
    06:00 -18°C° 0 mm 1 mps 462 mmHg 56%
    07:00 -18°C° 0 mm 1 mps 463 mmHg 52%
    08:00 -19°C° 0 mm 2 mps 463 mmHg 49%
    09:00 -17°C° 0 mm 2 mps 465 mmHg 49%
    10:00 -15°C° 0 mm 2 mps 467 mmHg 48%
    11:00 -13°C° 0 mm 2 mps 469 mmHg 48%
    12:00 -13°C° 0 mm 2 mps 469 mmHg 48%
    13:00 -12°C° 0 mm 2 mps 469 mmHg 48%
    14:00 -10°C° 0 mm 2 mps 469 mmHg 48%
    15:00 -13°C° 0 mm 2 mps 468 mmHg 55%
    16:00 -16°C° 0 mm 2 mps 466 mmHg 62%
    17:00 -18°C° 0 mm 2 mps 465 mmHg 69%
    18:00 -16°C° 0 mm 1 mps 465 mmHg 65%
    19:00 -17°C° 0 mm 1 mps 464 mmHg 61%
    20:00 -18°C° 0 mm 1 mps 464 mmHg 57%
    21:00 -18°C° 0 mm 1 mps 464 mmHg 51%
    22:00 -18°C° 0 mm 1 mps 464 mmHg 46%
    23:00 -18°C° 0 mm 1 mps 464 mmHg 40%

    15 December, Sunday

    Time Temperature Precipitation Wind Pressure Humidity
    00:00 -18°C° 0 mm 1 mps 464 mmHg 37%
    01:00 -19°C° 0 mm 1 mps 464 mmHg 33%
    02:00 -19°C° 0 mm 1 mps 464 mmHg 29%
    03:00 -19°C° 0 mm 1 mps 464 mmHg 28%
    04:00 -19°C° 0 mm 1 mps 463 mmHg 27%
    05:00 -19°C° 0 mm 1 mps 463 mmHg 26%
    06:00 -19°C° 0 mm 1 mps 463 mmHg 26%
    07:00 -19°C° 0 mm 1 mps 464 mmHg 25%
    08:00 -18°C° 0 mm 1 mps 464 mmHg 24%
    09:00 -16°C° 0 mm 1 mps 465 mmHg 26%
    10:00 -14°C° 0 mm 1 mps 467 mmHg 28%
    11:00 -12°C° 0 mm 1 mps 468 mmHg 30%
    12:00 -11°C° 0 mm 1 mps 469 mmHg 32%
    13:00 -10°C° 0 mm 1 mps 469 mmHg 34%
    14:00 -10°C° 0 mm 1 mps 469 mmHg 36%
    15:00 -12°C° 0 mm 1 mps 467 mmHg 41%
    16:00 -14°C° 0 mm 1 mps 466 mmHg 45%
    17:00 -16°C° 0 mm 1 mps 464 mmHg 49%
    18:00 -16°C° 0 mm 1 mps 464 mmHg 44%
    19:00 -17°C° 0 mm 1 mps 464 mmHg 40%
    20:00 -18°C° 0 mm 1 mps 464 mmHg 35%
    21:00 -18°C° 0 mm 1 mps 464 mmHg 32%
    22:00 -18°C° 0 mm 1 mps 464 mmHg 29%
    23:00 -18°C° 0 mm 1 mps 464 mmHg 25%

    16 December, Monday

    Time Temperature Precipitation Wind Pressure Humidity
    00:00 -18°C° 0 mm 1 mps 464 mmHg 24%
    01:00 -18°C° 0 mm 1 mps 464 mmHg 23%
    02:00 -19°C° 0 mm 1 mps 464 mmHg 22%
    03:00 -19°C° 0 mm 1 mps 464 mmHg 22%
    04:00 -19°C° 0 mm 1 mps 463 mmHg 23%
    05:00 -19°C° 0 mm 1 mps 463 mmHg 23%
    06:00 -19°C° 0 mm 1 mps 464 mmHg 24%
    07:00 -19°C° 0 mm 1 mps 464 mmHg 25%
    08:00 -19°C° 0 mm 1 mps 464 mmHg 26%
    09:00 -17°C° 0 mm 1 mps 466 mmHg 27%
    10:00 -15°C° 0 mm 1 mps 467 mmHg 29%
    11:00 -13°C° 0 mm 0 mps 469 mmHg 30%
    12:00 -12°C° 0 mm 1 mps 469 mmHg 33%
    13:00 -11°C° 0 mm 1 mps 469 mmHg 36%
    14:00 -11°C° 0 mm 1 mps 469 mmHg 39%
    15:00 -13°C° 0 mm 1 mps 468 mmHg 43%
    16:00 -14°C° 0 mm 1 mps 467 mmHg 48%
    17:00 -16°C° 0 mm 1 mps 465 mmHg 53%
    18:00 -17°C° 0 mm 1 mps 465 mmHg 50%
    19:00 -18°C° 0 mm 1 mps 465 mmHg 47%
    20:00 -18°C° 0 mm 1 mps 465 mmHg 44%
    21:00 -19°C° 0 mm 1 mps 465 mmHg 40%
    22:00 -19°C° 0 mm 1 mps 465 mmHg 37%
    23:00 -19°C° 0 mm 1 mps 465 mmHg 33%
    Show more